Regional Weather Roundup
Issued by NWS

Home | Current Version | Previous Version | Graphics & Text | Print | Product List | Glossary On
Versions: 1 2 3 4 5 6 7 8 9 10 11 12 13 14 15 16 17 18 19 20 21 22 23 24 25 26 27 28 29 30 31 32 33 34 35 36 37 38 39 40 41 42 43 44 45 46 47 48 49 50
000
ASUS43 KLSX 271659
RWRMO

WEATHER SUMMARY FOR MISSOURI
NATIONAL WEATHER SERVICE SPRINGFIELD MO
1100 AM CST TUE JAN 27 2015

NOTE: "FAIR" INDICATES FEW OR NO CLOUDS BELOW 12,000 FEET WITH NO
       SIGNIFICANT WEATHER AND/OR OBSTRUCTIONS TO VISIBILITY.
       CURRENT SKY AND/OR WEATHER CONDITIONS ARE NOT AVAILABLE FOR
       CHILLICOTHE AND FARMINGTON.

MOZ001>031-035>038-043-044-053-054-271800-
...NORTHERN AND WESTERN MISSOURI...

CITY           SKY/WX    TMP DP  RH WIND       PRES   REMARKS
KANSAS CTY INT MOSUNNY   45  34  65 E6        30.17R
KANSAS C DTWN  SUNNY     46  33  60 E7        30.18S
LEE`S SUMMIT   SUNNY     45  33  63 E6        30.18R
ST JOSEPH      SUNNY     44  34  67 E6        30.18S
CHILLICOTHE      N/A     43  33  68 E6        30.20R
KIRKSVILLE     CLOUDY    37  33  85 CALM      30.18R

$$
MOZ066>068-077>081-088>096-101>105-271800-
...SOUTHWEST MISSOURI...

CITY           SKY/WX    TMP DP  RH WIND       PRES   REMARKS
SPRINGFIELD    SUNNY     47  34  60 CALM      30.17R
JOPLIN         SUNNY     50  34  54 NE6       30.19S

$$
MOZ032>034-039>042-045>050-055>058-069>072-271800-
...CENTRAL MISSOURI...

CITY           SKY/WX    TMP DP  RH WIND       PRES   REMARKS
COLUMBIA       SUNNY     42  33  70 CALM      30.18R
JEFFERSON CITY SUNNY     44  33  65 CALM      30.19R
ROLLA          SUNNY     42  33  70 NW3       30.15R
SEDALIA        SUNNY     46  33  60 N6        30.20R
WHITEMAN AFB   SUNNY     45  33  64 NE5       30.18R
OSAGE BEACH    SUNNY     45  32  61 NE3       30.18R

$$
MOZ051-052-059>065-271800-
...EAST CENTRAL MISSOURI...

CITY           SKY/WX    TMP DP  RH WIND       PRES   REMARKS
ST LOUIS INTL  PTSUNNY   42  32  67 N8        30.17R
SPIRIT OF STL  MOSUNNY   44  31  60 N10       30.17R
ST CHARLES     PTSUNNY   43  34  70 N12       30.17R

$$
MOZ072>076-082>087-097>100-106>115-271800-
...SOUTH CENTRAL AND SOUTHEAST MISSOURI...

CITY           SKY/WX    TMP DP  RH WIND       PRES   REMARKS
CAPE GIRARDEAU PTSUNNY   44  34  67 N13       30.16R
FARMINGTON     CLOUDY    41  32  70 MISG      30.18R
POPLAR BLUFF   MOSUNNY   48  34  58 N6        30.15R
WEST PLAINS    SUNNY     48  32  53 VRB3      30.16R

$$


USA.gov is the U.S. government's official web portal to all federal, state and local government web resources and services.